Weather History for Cleveland Burke, OH

Change the Weather History Date:

Wednesday, December 5, 2012

  Actual Average Record
Temperature  
Mean Temperature 40 °F -  
Max Temperature 45 °F 43 °F 72 °F (2001)
Min Temperature 34 °F 33 °F 18 °F (2005)
Degree Days  
Heating Degree Days 26    
Moisture  
Dew Point 28 °F    
Average Humidity 67    
Maximum Humidity 82    
Minimum Humidity 57    
Precipitation  
Precipitation 0.00 in - - ()
Sea Level Pressure  
Sea Level Pressure 30.31 in    
Wind  
Wind Speed 12 mph (NNW)    
Max Wind Speed 20 mph    
Max Gust Speed 29 mph    
Visibility 10 miles    
Events      
Averages and records for this station are not official NWS values.
T = Trace of Precipitation, MM = Missing Value Source: NWS Daily Summary

Daily Weather History Graph

Daily Weather History Graph

Search for Another Location

Airport:

Trip Planner

Search our weather history database for the weather conditions in past years. The results will help you decide how hot, cold, wet, or windy it might be!

Date:

Astronomy

Dec. 05, 2012 Rise Set
Actual Time 7:38 AM EST 4:56 PM EST
Civil Twilight 7:07 AM EST 5:27 PM EST
Nautical Twilight 6:32 AM EST 6:02 PM EST
Astronomical Twilight 5:58 AM EST 6:36 PM EST
Moon 11:48 PM EST (12/5) 11:57 AM EST (12/5)
Length of Visible Light 10h 20m
Length of Day
9h 18m
Waning Gibbous, 60% of the Moon is Illuminated
Dec 5
Waning Gibbous
Dec 6
Last Quarter
Dec 13
New
Dec 20
First Quarter
Dec 28
Full

Hourly Weather History & Observations

Time (EST) Temp. Windchill Dew Point Humidity Pressure Visibility Wind Dir Wind Speed Gust Speed Precip Events Conditions
12:53 AM 45.0 °F 39.3 °F 37.9 °F 76% 30.12 in 10.0 mi West 11.5 mph - N/A   Clear
1:53 AM 44.1 °F 36.8 °F 37.9 °F 79% 30.14 in 10.0 mi West 16.1 mph - N/A   Clear
2:53 AM 43.0 °F 36.0 °F 37.9 °F 82% 30.17 in 10.0 mi West 13.8 mph - N/A   Clear
3:53 AM 43.0 °F 35.7 °F 36.0 °F 76% 30.18 in 10.0 mi WNW 15.0 mph - N/A   Clear
4:53 AM 41.0 °F 33.5 °F 34.0 °F 76% 30.20 in 10.0 mi NW 13.8 mph - N/A   Partly Cloudy
5:53 AM 41.0 °F 32.8 °F 30.9 °F 67% 30.22 in 10.0 mi NW 16.1 mph - N/A   Clear
6:53 AM 39.9 °F 31.8 °F 32.0 °F 73% 30.24 in 10.0 mi NW 15.0 mph - N/A   Mostly Cloudy
7:02 AM 39.2 °F 30.5 °F 32.0 °F 75% 30.23 in 10.0 mi NW 16.1 mph - N/A   Mostly Cloudy
7:26 AM 39.2 °F 30.2 °F 32.0 °F 75% 30.24 in 10.0 mi NNW 17.3 mph - N/A   Overcast
7:53 AM 37.9 °F 27.9 °F 30.9 °F 76% 30.27 in 10.0 mi NNW 19.6 mph 28.8 mph N/A   Overcast
9:53 AM 34.0 °F 22.7 °F 25.0 °F 70% 30.35 in 10.0 mi NNW 19.6 mph - N/A   Overcast
10:53 AM 35.1 °F 25.5 °F 24.1 °F 64% 30.38 in 10.0 mi NNW 15.0 mph - N/A   Mostly Cloudy
11:53 AM 35.1 °F 26.4 °F 23.0 °F 61% 30.38 in 10.0 mi NNW 12.7 mph 20.7 mph N/A   Mostly Cloudy
12:53 PM 37.0 °F 28.5 °F 24.1 °F 59% 30.36 in 10.0 mi NNW 13.8 mph 20.7 mph N/A   Mostly Cloudy
1:53 PM 36.0 °F 28.5 °F 23.0 °F 59% 30.37 in 10.0 mi North 10.4 mph 18.4 mph N/A   Mostly Cloudy
2:53 PM 36.0 °F 28.0 °F 21.9 °F 57% 30.37 in 10.0 mi North 11.5 mph - N/A   Mostly Cloudy
3:53 PM 36.0 °F 29.0 °F 23.0 °F 59% 30.39 in 10.0 mi NNE 9.2 mph 17.3 mph N/A   Overcast
4:53 PM 36.0 °F 29.0 °F 25.0 °F 64% 30.40 in 10.0 mi North 9.2 mph 16.1 mph N/A   Overcast
5:53 PM 36.0 °F 30.3 °F 23.0 °F 59% 30.39 in 10.0 mi NNE 6.9 mph - N/A   Overcast
6:53 PM 36.0 °F 28.5 °F 25.0 °F 64% 30.39 in 10.0 mi NNE 10.4 mph - N/A   Overcast
7:04 PM 35.6 °F 27.1 °F 26.6 °F 70% 30.37 in 10.0 mi North 12.7 mph - N/A   Overcast
7:53 PM 36.0 °F 28.5 °F 25.0 °F 64% 30.39 in 10.0 mi NNE 10.4 mph - N/A   Overcast
8:53 PM 36.0 °F - 24.1 °F 62% 30.39 in 10.0 mi Calm Calm - N/A   Overcast
9:53 PM 36.0 °F 32.1 °F 26.1 °F 67% 30.39 in 10.0 mi North 4.6 mph - N/A   Overcast
10:53 PM 36.0 °F - 25.0 °F 64% 30.38 in 10.0 mi Calm Calm - N/A   Overcast
11:03 PM 35.6 °F - 24.8 °F 65% 30.36 in 10.0 mi Calm Calm - N/A   Overcast
11:24 PM 35.6 °F 32.8 °F 24.8 °F 65% 30.36 in 10.0 mi ENE 3.5 mph - N/A   Overcast
11:53 PM 36.0 °F - 24.1 °F 62% 30.38 in 10.0 mi Calm Calm - N/A   Overcast